Regional Weather Roundup
Issued by NWS Newport/Morehead, NC

Current Version | Previous Version | Graphics & Text | Print | Product List | Glossary Off
Versions: 1 2 3 4 5 6 7 8 9 10 11 12 13 14 15 16 17 18 19 20 21 22 23 24 25 26 27 28 29 30 31 32 33 34 35 36 37 38 39 40 41 42 43 44 45 46 47 48 49 50

000
ASUS42 KMHX 250922
RWRMHX
WEATHER ROUNDUP FOR EASTERN NORTH CAROLINA
NATIONAL WEATHER SERVICE NEWPORT/MOREHEAD CITY NC
500 AM EDT SAT OCT 25 2014

NOTE: "FAIR" INDICATES FEW OR NO CLOUDS BELOW 12,000 FEET
WITH NO SIGNIFICANT WEATHER AND/OR OBSTRUCTIONS TO VISIBILITY

NCZ015>017-031-032-045>047-102-103-251000-
NORTH COAST

CITY           SKY/WX    TMP DP  RH WIND       PRES   REMARKS
EDENTON        CLEAR     45  44  96 CALM      29.97R
ELIZABETH CITY CLEAR     50  44  80 NW7       29.95S
KITTY HAWK     SUNNY     55  50  82 CALM      29.93S
MANTEO         CLEAR     50  48  92 NW5       29.95R

$$

NCZ045>047-081-094-103-104-251000-
CENTRAL COAST

CITY           SKY/WX    TMP DP  RH WIND       PRES   REMARKS
FRISCO         CLEAR     52  51  97 N3        29.95R
SWANQUARTER      N/A     46 N/A N/A NW2       29.91S

$$

NCZ095-097-098-100-101-251000-
SOUTHERN COAST

CITY           SKY/WX    TMP DP  RH WIND       PRES   REMARKS
BEAUFORT       CLEAR     52  50  93 CALM      29.96S
CEDAR ISLAND     N/A     57 N/A N/A W2        30.00R
JACKSONVILLE   CLEAR     46  45  96 CALM      29.96S
PINEY ISLAND   SUNNY     60  50  69 NW7       29.95S
WILMINGTON     CLEAR     46  45  96 CALM      29.96S


$$

NCZ011>013-027>030-043-044-078>080-089-090>093-098-251000-
COASTAL PLAIN

CITY           SKY/WX    TMP DP  RH WIND       PRES   REMARKS
AHOSKIE        CLEAR     40  39  97 CALM      29.98R
CLINTON        CLEAR     45  45 100 CALM      29.97S
ELIZABETHTOWN  CLEAR     45  44  95 CALM      29.97S
GOLDSBORO      CLEAR     45  45 100 SW1       29.95R FOG
GREENVILLE     MIX PCPN  43  43 100 CALM      29.98R
HAVELOCK       CLEAR     47  45  93 CALM      29.97S
KENANSVILLE    CLEAR     42  42  99 CALM      29.97F
KINSTON        CLEAR     40  40  98 CALM      29.97S
NEW BERN       CLEAR     48  45  89 S3        29.97S
RICHLANDS      CLEAR     41  37  87 CALM      29.97S
ROCKY MOUNT    CLEAR     42  41  96 SW3       29.96S
WASHINGTON     CLEAR     44  43  95 CALM      29.96S
WHITEVILLE     CLEAR     47  46  95 CALM      29.97S

$$

AMZ130-135-150-152-154-156-158-170-250-252-270-ANZ085-086-088-633-658-670-251000-
MARINE OBSERVATIONS

STATION/POSITION TIME  TEMP    WIND        PRES    WAVE   SWELL
                       AIR SEA DIR/SP/G            HT/PER HT/PER
                 (UTC) (F)     (DEG/KT/KT) (MB)    (FT/S) (FT/S)
CHESAPEAKE LIGHT 0900   61     350/ 17/ 18 1014.0
64 E VA BEACH    0900   63 66  330/ 12/ 16 1012.6    3/ 5   2/ 9
DUCK             0900   57 65  320/  7/  9 1013.1
2 E DUCK         0900                        N/A     3/ 9
10 NE DUCK       0900      67                N/A     3/10
OREGON INLET     0900   56 64  300/  4/  5 1013.6
13E OREGON INLT  0900      69                N/A     4/ 9   2/11
HATTERAS CG      0900   62 65  330/  6/  8 1014.3
DIAMOND BUOY     0900   65     330/ 10/ 12 1014.0    3/ 9   2/ 9
17 S OCRACOKE    0800          VRB  8/ 10  1013.9
CAPE LOOKOUT     0900   60     340/  6/  8 1014.2
BEAUFORT LAB     0900   56 66  310/  2/  3 1013.6
30 SE NEW RIVER  0900   67 74  340/  8/ 12 1013.9    3/ 9   2/ 9
5 SE WRIGHTSVLE  0900   61 71  300/  8/  8   N/A
225 S CAPE HAT   0829   71 77   20/  6/ 10 1013.7    4/ 9   3/ 9
41 SE CHARLESTON 0900   69 78  340/  6/ 10 1014.5    3/10   2/10

$$



USA.gov is the U.S. government's official web portal to all federal, state and local government web resources and services.